• In Hungary
  • List of Countries
  • For 7 days
  • Water Temperature
  • Satellite Maps
  • Weather Map
  • News
  • Weather Widgets
  • user-avatar
    Login

    Hourly Weather Calatayud

    Today, 24 June, Sunday

    Time Temperature Precipitation Wind Pressure Humidity
    00:00 +23°C° 0 mm 1 mps 716 mmHg 58%
    01:00 +22°C° 0 mm 1 mps 716 mmHg 59%
    02:00 +21°C° 0 mm 1 mps 716 mmHg 61%
    03:00 +21°C° 0 mm 1 mps 716 mmHg 62%
    04:00 +21°C° 0 mm 1 mps 716 mmHg 60%
    05:00 +22°C° 0 mm 1 mps 716 mmHg 59%
    06:00 +22°C° 0 mm 1 mps 716 mmHg 57%
    07:00 +24°C° 0 mm 1 mps 716 mmHg 52%
    08:00 +25°C° 0 mm 1 mps 716 mmHg 48%
    09:00 +27°C° 0 mm 1 mps 716 mmHg 43%
    10:00 +29°C° 0 mm 2 mps 716 mmHg 38%
    11:00 +30°C° 0 mm 2 mps 716 mmHg 34%
    12:00 +32°C° 0 mm 2 mps 716 mmHg 30%
    13:00 +34°C° 0 mm 2 mps 716 mmHg 27%
    14:00 +35°C° 0 mm 3 mps 715 mmHg 25%
    15:00 +35°C° 0 mm 4 mps 715 mmHg 23%
    16:00 +35°C° 0 mm 4 mps 715 mmHg 23%
    17:00 +34°C° 0 mm 4 mps 715 mmHg 24%
    18:00 +34°C° 0 mm 5 mps 715 mmHg 25%
    19:00 +30°C° 0 mm 4 mps 715 mmHg 29%
    20:00 +28°C° 0 mm 3 mps 715 mmHg 34%
    21:00 +26°C° 0 mm 2 mps 716 mmHg 38%
    22:00 +25°C° 0 mm 2 mps 716 mmHg 42%
    23:00 +24°C° 0 mm 2 mps 716 mmHg 45%

    Tomorrow, 25 June, Monday

    Time Temperature Precipitation Wind Pressure Humidity
    00:00 +23°C° 0 mm 2 mps 716 mmHg 48%
    01:00 +23°C° 0 mm 2 mps 715 mmHg 50%
    02:00 +21°C° 0 mm 2 mps 715 mmHg 52%
    03:00 +21°C° 0 mm 2 mps 715 mmHg 54%
    04:00 +22°C° 0 mm 1 mps 715 mmHg 53%
    05:00 +23°C° 0 mm 1 mps 715 mmHg 53%
    06:00 +23°C° 0 mm 1 mps 715 mmHg 52%
    07:00 +25°C° 0 mm 1 mps 715 mmHg 47%
    08:00 +26°C° 0 mm 1 mps 716 mmHg 42%
    09:00 +28°C° 0 mm 1 mps 716 mmHg 37%
    10:00 +30°C° 0 mm 2 mps 716 mmHg 34%
    11:00 +31°C° 0 mm 2 mps 716 mmHg 30%
    12:00 +34°C° 0 mm 2 mps 716 mmHg 27%
    13:00 +35°C° 0 mm 2 mps 715 mmHg 26%
    14:00 +35°C° 0 mm 3 mps 715 mmHg 24%
    15:00 +36°C° 0 mm 3 mps 715 mmHg 22%
    16:00 +36°C° 0.1 mm 3 mps 715 mmHg 24%
    17:00 +35°C° 0.1 mm 4 mps 715 mmHg 25%
    18:00 +34°C° 0.1 mm 4 mps 715 mmHg 27%
    19:00 +32°C° 0.1 mm 4 mps 715 mmHg 32%
    20:00 +29°C° 0.1 mm 3 mps 715 mmHg 37%
    21:00 +27°C° 0.1 mm 2 mps 715 mmHg 42%
    22:00 +26°C° 0.1 mm 2 mps 715 mmHg 45%
    23:00 +26°C° 0.1 mm 2 mps 715 mmHg 49%

    Day after tomorrow, 26 June, Tuesday

    Time Temperature Precipitation Wind Pressure Humidity
    00:00 +25°C° 0.1 mm 1 mps 715 mmHg 53%
    01:00 +24°C° 0 mm 1 mps 715 mmHg 56%
    02:00 +24°C° 0 mm 1 mps 715 mmHg 60%
    03:00 +23°C° 0 mm 1 mps 715 mmHg 63%
    04:00 +23°C° 0 mm 1 mps 715 mmHg 63%
    05:00 +24°C° 0 mm 1 mps 715 mmHg 63%
    06:00 +24°C° 0 mm 1 mps 715 mmHg 63%
    07:00 +26°C° 0 mm 1 mps 715 mmHg 58%
    08:00 +27°C° 0 mm 1 mps 715 mmHg 52%
    09:00 +29°C° 0 mm 2 mps 715 mmHg 46%
    10:00 +30°C° 0 mm 2 mps 715 mmHg 42%
    11:00 +32°C° 0 mm 2 mps 715 mmHg 38%
    12:00 +34°C° 0 mm 2 mps 715 mmHg 33%
    13:00 +35°C° 0 mm 2 mps 715 mmHg 32%
    14:00 +35°C° 0 mm 3 mps 715 mmHg 31%
    15:00 +36°C° 0 mm 3 mps 715 mmHg 30%
    16:00 +35°C° 0.2 mm 4 mps 715 mmHg 33%
    17:00 +33°C° 0.2 mm 4 mps 715 mmHg 37%
    18:00 +32°C° 0.2 mm 5 mps 714 mmHg 41%
    19:00 +30°C° 0.4 mm 5 mps 715 mmHg 47%
    20:00 +28°C° 0.4 mm 4 mps 715 mmHg 53%
    21:00 +27°C° 0.4 mm 4 mps 715 mmHg 59%
    22:00 +26°C° 0.3 mm 3 mps 715 mmHg 61%
    23:00 +26°C° 0.3 mm 3 mps 716 mmHg 64%

    27 June, Wednesday

    Time Temperature Precipitation Wind Pressure Humidity
    00:00 +25°C° 0.3 mm 2 mps 716 mmHg 67%
    01:00 +25°C° 0.3 mm 2 mps 715 mmHg 69%
    02:00 +24°C° 0.3 mm 2 mps 715 mmHg 72%
    03:00 +23°C° 0.3 mm 1 mps 715 mmHg 74%
    04:00 +23°C° 0.1 mm 1 mps 715 mmHg 73%
    05:00 +24°C° 0.1 mm 1 mps 715 mmHg 72%
    06:00 +24°C° 0.1 mm 2 mps 715 mmHg 71%
    07:00 +25°C° 0 mm 2 mps 715 mmHg 64%
    08:00 +27°C° 0 mm 2 mps 716 mmHg 58%
    09:00 +29°C° 0 mm 2 mps 716 mmHg 51%
    10:00 +30°C° 0 mm 2 mps 716 mmHg 46%
    11:00 +31°C° 0 mm 2 mps 716 mmHg 42%
    12:00 +34°C° 0 mm 2 mps 715 mmHg 37%
    13:00 +34°C° 0.1 mm 3 mps 715 mmHg 39%
    14:00 +33°C° 0.1 mm 3 mps 715 mmHg 40%
    15:00 +33°C° 0.1 mm 3 mps 715 mmHg 41%
    16:00 +32°C° 2.2 mm 4 mps 714 mmHg 49%
    17:00 +29°C° 2.2 mm 4 mps 714 mmHg 57%
    18:00 +28°C° 2.2 mm 4 mps 714 mmHg 64%
    19:00 +27°C° 0.8 mm 4 mps 714 mmHg 68%
    20:00 +26°C° 0.8 mm 3 mps 715 mmHg 71%
    21:00 +25°C° 0.8 mm 2 mps 715 mmHg 75%
    22:00 +25°C° 0 mm 2 mps 715 mmHg 75%
    23:00 +25°C° 0 mm 2 mps 715 mmHg 75%

    28 June, Thursday

    Time Temperature Precipitation Wind Pressure Humidity
    00:00 +24°C° 0 mm 2 mps 715 mmHg 75%
    01:00 +24°C° 0.1 mm 2 mps 715 mmHg 78%
    02:00 +23°C° 0.1 mm 1 mps 714 mmHg 80%
    03:00 +23°C° 0.1 mm 1 mps 714 mmHg 82%
    04:00 +23°C° 0 mm 1 mps 714 mmHg 81%
    05:00 +23°C° 0 mm 1 mps 714 mmHg 79%
    06:00 +23°C° 0 mm 1 mps 714 mmHg 77%
    07:00 +25°C° 0.1 mm 1 mps 714 mmHg 70%
    08:00 +26°C° 0.1 mm 2 mps 714 mmHg 63%
    09:00 +28°C° 0.1 mm 2 mps 714 mmHg 55%
    10:00 +29°C° 0 mm 2 mps 714 mmHg 50%
    11:00 +31°C° 0 mm 2 mps 714 mmHg 45%
    12:00 +33°C° 0 mm 3 mps 714 mmHg 40%
    13:00 +33°C° 0 mm 3 mps 713 mmHg 39%
    14:00 +33°C° 0 mm 3 mps 713 mmHg 39%
    15:00 +34°C° 0 mm 3 mps 712 mmHg 38%
    16:00 +33°C° 0.1 mm 3 mps 712 mmHg 40%
    17:00 +33°C° 0.1 mm 4 mps 712 mmHg 42%
    18:00 +32°C° 0.1 mm 4 mps 712 mmHg 44%
    19:00 +30°C° 0.8 mm 3 mps 712 mmHg 49%
    20:00 +29°C° 0.8 mm 3 mps 712 mmHg 54%
    21:00 +27°C° 0.8 mm 2 mps 713 mmHg 59%
    22:00 +27°C° 0.4 mm 2 mps 713 mmHg 61%
    23:00 +26°C° 0.4 mm 2 mps 712 mmHg 63%

    29 June, Friday

    Time Temperature Precipitation Wind Pressure Humidity
    00:00 +26°C° 0.4 mm 2 mps 712 mmHg 64%
    01:00 +25°C° 0.3 mm 2 mps 712 mmHg 66%
    02:00 +24°C° 0.3 mm 1 mps 712 mmHg 67%
    03:00 +24°C° 0.3 mm 1 mps 712 mmHg 69%
    04:00 +24°C° 0 mm 1 mps 712 mmHg 67%
    05:00 +24°C° 0 mm 1 mps 712 mmHg 66%
    06:00 +24°C° 0 mm 1 mps 712 mmHg 64%
    07:00 +26°C° 0 mm 1 mps 712 mmHg 58%
    08:00 +27°C° 0 mm 1 mps 712 mmHg 52%
    09:00 +28°C° 0 mm 2 mps 712 mmHg 46%
    10:00 +30°C° 0 mm 2 mps 712 mmHg 41%
    11:00 +31°C° 0 mm 3 mps 712 mmHg 36%
    12:00 +34°C° 0 mm 3 mps 712 mmHg 31%
    13:00 +34°C° 0 mm 3 mps 712 mmHg 30%
    14:00 +35°C° 0 mm 3 mps 712 mmHg 29%
    15:00 +36°C° 0 mm 4 mps 711 mmHg 27%
    16:00 +35°C° 0 mm 4 mps 711 mmHg 29%
    17:00 +34°C° 0 mm 5 mps 711 mmHg 31%
    18:00 +34°C° 0 mm 5 mps 711 mmHg 33%
    19:00 +32°C° 0 mm 4 mps 712 mmHg 35%
    20:00 +30°C° 0 mm 4 mps 712 mmHg 38%
    21:00 +28°C° 0 mm 3 mps 712 mmHg 41%
    22:00 +27°C° 0 mm 3 mps 712 mmHg 43%
    23:00 +27°C° 0 mm 3 mps 712 mmHg 45%
    Show more